Location: Lecco
(45.8566°N, 9.3977°E)
Time: 22:57:04
(UTC+02:00)

ISS - Pass Details

Date: 04 May 2019
Orbit: 407 x 410 km, 51.6° (Epoch: 20 May)

Event Time Altitude Azimuth Distance (km) Brightness Sun altitude
Exits shadow 05:08:34 13° 252° (WSW) 1,295 -1.9 -9.5°
Maximum altitude 05:11:25 68° 335° (NNW) 445 -3.6 -9.1°
Drops below altitude 10° 05:14:43 10° 59° (ENE) 1,480 0.7 -8.6°
Sets 05:16:50 0° 62° (ENE) 2,345 2.4 -8.3°
